| time (UTC) | temp F | wind direction | speed knots | gust knots | rain 1hr in | rain 24hr in | rain mn in | humidity % | barometer mb |
| 20260506013014 | 54 | 319 | 0.0 | 0.0 | 0.09 | 0.81 | 0.11 | 97 | 1012.4 |
| 20260506011547 | 54 | 319 | 0.0 | 0.0 | 0.09 | 0.81 | 0.11 | 97 | 1012.5 |
| 20260506010036 | 54 | 319 | 0.0 | 0.0 | 0.02 | 0.73 | 0.03 | 97 | 1012.8 |
| 20260506004501 | 54 | 319 | 0.0 | 0.0 | 0.02 | 0.72 | 0.02 | 97 | 1013.0 |
| 20260506003030 | 54 | 319 | 0.0 | 0.0 | 0.02 | 0.72 | 0.02 | 97 | 1013.1 |
| 20260506001608 | 54 | 319 | 0.0 | 0.0 | 0.02 | 0.72 | 0.02 | 97 | 1013.1 |
| 20260506000125 | 54 | 319 | 0.0 | 0.0 | 0.01 | 0.71 | 0.01 | 97 | 1013.2 |
| 20260505234512 | 54 | 319 | 0.0 | 0.0 | 0.00 | 0.70 | 0.00 | 97 | 1013.5 |
| 20260505233022 | 54 | 319 | 0.0 | 0.0 | 0.00 | 0.70 | 0.00 | 97 | 1013.6 |
| 20260505231529 | 54 | 319 | 0.0 | 0.0 | 0.00 | 0.70 | 0.00 | 97 | 1013.7 |
| 20260505230048 | 54 | 319 | 0.0 | 0.0 | 0.00 | 0.70 | 0.00 | 97 | 1013.8 |
| 20260505224507 | 54 | 319 | 0.0 | 0.0 | 0.00 | 0.70 | 0.00 | 97 | 1014.0 |
| 20260505223021 | 54 | 319 | 0.0 | 0.0 | 0.00 | 0.70 | 0.00 | 96 | 1014.2 |
| 20260505221557 | 54 | 319 | 0.0 | 0.0 | 0.00 | 0.70 | 0.00 | 96 | 1014.0 |
| 20260505220107 | 54 | 319 | 0.0 | 0.0 | 0.00 | 0.70 | 0.00 | 96 | 1014.1 |
| 20260505214523 | 54 | 319 | 0.0 | 0.0 | 0.01 | 0.70 | 0.70 | 97 | 1014.3 |
| 20260505213051 | 54 | 319 | 0.0 | 0.0 | 0.02 | 0.70 | 0.70 | 96 | 1014.5 |
| 20260505211528 | 54 | 319 | 0.0 | 0.0 | 0.03 | 0.70 | 0.70 | 96 | 1014.7 |
| 20260505210019 | 54 | 319 | 0.0 | 0.0 | 0.05 | 0.70 | 0.70 | 96 | 1014.8 |
| 20260505204539 | 54 | 319 | 0.0 | 0.0 | 0.07 | 0.69 | 0.69 | 96 | 1014.8 |
| 20260505203048 | 54 | 319 | 0.0 | 0.0 | 0.09 | 0.68 | 0.68 | 96 | 1015.0 |
| 20260505201514 | 54 | 319 | 0.0 | 0.0 | 0.09 | 0.67 | 0.67 | 96 | 1014.9 |
| 20260505200011 | 54 | 319 | 0.0 | 0.0 | 0.09 | 0.65 | 0.65 | 96 | 1014.8 |
| 20260505194525 | 54 | 319 | 0.0 | 0.0 | 0.08 | 0.62 | 0.62 | 96 | 1014.7 |
| 20260505193036 | 54 | 319 | 0.0 | 0.0 | 0.07 | 0.59 | 0.59 | 96 | 1014.7 |
| 20260505191539 | 54 | 319 | 0.0 | 0.0 | 0.08 | 0.57 | 0.57 | 95 | 1014.6 |
| 20260505190039 | 54 | 319 | 0.0 | 0.0 | 0.06 | 0.56 | 0.56 | 95 | 1014.4 |
| 20260505184552 | 54 | 319 | 0.0 | 0.0 | 0.06 | 0.54 | 0.54 | 95 | 1014.4 |
| 20260505183016 | 54 | 319 | 0.0 | 0.0 | 0.05 | 0.52 | 0.52 | 95 | 1014.4 |
| 20260505181516 | 54 | 319 | 0.0 | 0.0 | 0.05 | 0.50 | 0.50 | 95 | 1014.3 |
| 20260505180016 | 53 | 319 | 0.0 | 0.0 | 0.06 | 0.50 | 0.50 | 94 | 1014.2 |
| 20260505174536 | 54 | 319 | 0.0 | 0.0 | 0.05 | 0.48 | 0.48 | 94 | 1014.4 |
| 20260505173057 | 54 | 310 | 0.0 | 0.0 | 0.06 | 0.47 | 0.47 | 94 | 1014.4 |
| 20260505171530 | 54 | 310 | 0.0 | 0.0 | 0.05 | 0.45 | 0.45 | 94 | 1014.3 |
| 20260505170021 | 54 | 306 | 0.0 | 0.0 | 0.04 | 0.44 | 0.44 | 94 | 1014.4 |
| 20260505164535 | 54 | 305 | 0.0 | 0.9 | 0.03 | 0.43 | 0.43 | 94 | 1014.5 |
| 20260505163048 | 54 | 310 | 0.0 | 0.0 | 0.02 | 0.41 | 0.41 | 93 | 1014.6 |
| 20260505161510 | 54 | 306 | 0.0 | 0.0 | 0.01 | 0.40 | 0.40 | 93 | 1014.5 |
| 20260505153018 | 54 | 310 | 0.0 | 0.0 | 0.01 | 0.39 | 0.39 | 93 | 1014.9 |
| 20260505151517 | 54 | 310 | 0.0 | 0.0 | 0.01 | 0.39 | 0.39 | 92 | 1014.7 |
| 20260505124555 | 54 | 350 | 0.0 | 0.0 | 0.01 | 0.38 | 0.38 | 91 | 1015.1 |
| 20260505123017 | 54 | 306 | 0.0 | 0.9 | 0.01 | 0.38 | 0.38 | 91 | 1015.1 |
| 20260505121541 | 55 | 304 | 0.0 | 0.0 | 0.02 | 0.38 | 0.38 | 90 | 1015.1 |
| 20260505120117 | 56 | 297 | 0.0 | 0.0 | 0.01 | 0.37 | 0.37 | 91 | 1015.1 |
| 20260505114525 | 56 | 308 | 0.0 | 0.0 | 0.01 | 0.37 | 0.37 | 91 | 1015.2 |
| 20260505113053 | 56 | 308 | 0.0 | 0.0 | 0.02 | 0.37 | 0.37 | 91 | 1015.2 |
| 20260505111524 | 56 | 306 | 0.0 | 0.9 | 0.02 | 0.36 | 0.36 | 90 | 1015.3 |
| 20260505101525 | 55 | 8 | 0.0 | 0.0 | 0.00 | 0.34 | 0.34 | 90 | 1015.3 |
| 20260505100023 | 55 | 47 | 0.0 | 0.0 | 0.01 | 0.34 | 0.34 | 88 | 1015.5 |
| 20260505094535 | 54 | 30 | 0.0 | 2.6 | 0.01 | 0.34 | 0.34 | 88 | 1015.6 |
| 20260505093102 | 54 | 284 | 0.0 | 0.0 | 0.02 | 0.34 | 0.34 | 90 | 1015.6 |
| 20260505091600 | 54 | 40 | 0.0 | 1.7 | 0.02 | 0.34 | 0.34 | 91 | 1015.5 |
| 20260505084528 | 54 | 13 | 0.0 | 0.9 | 0.02 | 0.33 | 0.33 | 91 | 1015.4 |
| 20260505083053 | 54 | 333 | 0.0 | 7.0 | 0.02 | 0.32 | 0.32 | 91 | 1015.2 |
| 20260505081503 | 54 | 341 | 0.0 | 0.0 | 0.05 | 0.32 | 0.32 | 92 | 1015.2 |
| 20260505080114 | 54 | 8 | 0.0 | 0.9 | 0.07 | 0.32 | 0.32 | 92 | 1015.1 |
| 20260505074530 | 53 | 13 | 0.0 | 0.9 | 0.11 | 0.31 | 0.31 | 91 | 1015.3 |
| 20260505073047 | 54 | 20 | 0.0 | 2.6 | 0.14 | 0.30 | 0.30 | 91 | 1015.6 |
| 20260505071506 | 54 | 302 | 0.0 | 0.9 | 0.13 | 0.27 | 0.27 | 91 | 1015.7 |
| 20260505070007 | 54 | 43 | 0.0 | 0.9 | 0.13 | 0.24 | 0.24 | 91 | 1015.3 |
| 20260505064529 | 53 | 3 | 0.0 | 0.0 | 0.12 | 0.20 | 0.20 | 91 | 1015.2 |
| 20260505063035 | 53 | 13 | 0.0 | 0.9 | 0.10 | 0.16 | 0.16 | 90 | 1015.0 |
| 20260505061604 | 53 | 41 | 0.0 | 2.6 | 0.10 | 0.14 | 0.14 | 90 | 1015.1 |
| 20260505060002 | 53 | 359 | 0.0 | 2.6 | 0.08 | 0.11 | 0.11 | 89 | 1014.9 |
| 20260505054544 | 53 | 13 | 0.0 | 0.9 | 0.06 | 0.08 | 0.08 | 88 | 1014.9 |
| 20260505053045 | 54 | 295 | 0.0 | 3.5 | 0.05 | 0.06 | 0.06 | 88 | 1014.7 |
| 20260505051512 | 54 | 312 | 0.0 | 0.9 | 0.04 | 0.04 | 0.04 | 87 | 1014.4 |
| 20260505041514 | 56 | 312 | 0.9 | 10.4 | 0.00 | 0.00 | 0.00 | 79 | 1014.2 |
| 20260505040010 | 56 | 323 | 0.0 | 0.0 | 0.00 | 0.00 | 0.00 | 85 | 1014.1 |
| 20260505034527 | 56 | 325 | 0.0 | 0.0 | 0.00 | 0.00 | 0.00 | 86 | 1013.9 |
| 20260505033051 | 56 | 21 | 0.0 | 0.0 | 0.00 | 0.00 | 0.00 | 85 | 1013.9 |
| 20260505031512 | 56 | 21 | 0.0 | 0.0 | 0.00 | 0.00 | 0.00 | 85 | 1013.9 |
| 20260505030127 | 56 | 21 | 0.0 | 0.0 | 0.00 | 0.00 | 0.00 | 84 | 1014.1 |
| 20260505024515 | 56 | 21 | 0.0 | 0.0 | 0.00 | 0.00 | 0.00 | 84 | 1014.2 |
| 20260505023043 | 56 | 195 | 0.0 | 0.0 | 0.00 | 0.00 | 0.00 | 84 | 1014.6 |
| 20260505021604 | 56 | 195 | 0.0 | 0.0 | 0.00 | 0.00 | 0.00 | 83 | 1014.7 |
| 20260505020004 | 56 | 195 | 0.0 | 0.0 | 0.00 | 0.00 | 0.00 | 83 | 1014.8 |
| 20260505014538 | 57 | 195 | 0.0 | 0.0 | 0.00 | 0.00 | 0.00 | 82 | 1014.8 |